Location: Laterina
(43.5167°N, 11.7167°E)
Time: 15:59:47
(UTC+00:00)

COSMOS 2406 - Pass Details

Date: 24 September 2020
Orbit: 844 x 863 km, 71.0° (Epoch: 25 October)

Event Time Altitude Azimuth Distance (km) Brightness Sun altitude
Rises 19:39:39 0° 333° (NNW) 3,412 7.2 -27.6°
Reaches altitude 10° 19:42:06 10° 331° (NNW) 2,474 6.3 -28.0°
Maximum altitude 19:47:44 70° 249° (WSW) 900 3.3 -28.9°
Enters shadow 19:47:55 69° 235° (SW) 903 3.3 -28.9°
